Vorticity
13 15 17 19 19 18 17 17 16 15 14 15 17 17 14 14 16 19 19 16 15 13
19 19 18 16 14 14 13 12 12 12 12 12 12 12 13 14 13 13 15 18 18 16
17 14 12 10 10 10 10 10 11 11 11 11 12 12 12 12 12 12 11 13 16 17
10 10 9 10 10 11 11 11 10 10 12 14 16 17 17 16 13 11 11 11 11 14
10 9 10 11 11 10 13 15 16 16 15 12 10 9 9 10 12 16 19 12 11 11
9 12 12 11 12 12 12 12 11 11 10 9 8 7 5 7 8 9 13 17 20 11
13 11 11 10 10 10 9 10 10 11 12 12 15 16 18 17 14 10 10 13 17 20
11 8 8 10 12 14 16 17 17 17 17 17 16 16 17 16 16 16 12 10 14 18
8 9 12 15 17 18 19 17 17 17 17 16 18 18 18 17 20 19 18 12 11 14
10 13 17 17 17 14 12 12 9 10 16 16 14 13 13 14 13 15 17 19 10 14
14 16 16 14 12 10 10 6 15 22 28 25 25 25 21 17 12 9 12 18 17 9
15 14 14 13 12 12 6 16 34 30 24 17 13 9 9 11 14 18 10 10 20 13
13 13 12 13 12 11 11 24 24 17 10 5 7 33 40 36 24 18 14 8 11 18
13 13 13 13 11 8 21 31 19 13 8 6 6 22 21 28 30 31 25 14 16 18
Height
3043 3036 3030 3023 3017 3012 3007 3003 3000 2998 2996 2995 2993 2991 2990 2990 2990 2991 2992 2995 2997 3000
3029 3024 3018 3012 3007 3001 2996 2991 2986 2983 2980 2979 2977 2976 2973 2970 2971 2972 2974 2975 2977 2979
3016 3011 3006 3000 2994 2989 2983 2978 2972 2968 2965 2962 2961 2959 2957 2955 2954 2953 2955 2957 2958 2960
3003 2997 2991 2985 2980 2974 2968 2964 2958 2953 2948 2945 2943 2942 2939 2938 2937 2936 2936 2938 2940 2942
2990 2984 2977 2971 2965 2960 2954 2950 2944 2938 2934 2930 2928 2925 2922 2921 2920 2918 2918 2919 2921 2923
2980 2972 2965 2958 2952 2946 2939 2934 2928 2923 2918 2914 2911 2907 2906 2903 2902 2901 2900 2900 2901 2905
2970 2962 2954 2946 2938 2931 2924 2917 2911 2906 2901 2896 2893 2890 2886 2884 2883 2883 2883 2883 2883 2885
2959 2951 2941 2933 2924 2916 2908 2901 2894 2887 2883 2879 2874 2871 2868 2866 2864 2863 2864 2866 2866 2867
2948 2939 2929 2920 2911 2902 2895 2887 2880 2874 2867 2862 2858 2856 2853 2850 2846 2845 2845 2847 2850 2850
2938 2927 2918 2908 2899 2890 2881 2873 2865 2858 2851 2845 2842 2840 2837 2835 2832 2829 2827 2828 2831 2833
2927 2916 2907 2897 2887 2878 2868 2859 2850 2840 2834 2828 2826 2824 2821 2820 2817 2813 2812 2812 2815 2817
2918 2906 2896 2886 2876 2866 2855 2845 2835 2827 2821 2816 2812 2810 2806 2803 2799 2796 2795 2797 2799 2802
2909 2898 2887 2877 2866 2856 2844 2831 2823 2817 2813 2808 2800 2795 2788 2783 2779 2777 2779 2782 2784 2787
2903 2890 2880 2868 2858 2845 2832 2822 2815 2808 2804 2798 2791 2782 2775 2769 2764 2761 2763 2766 2771 2775